Tracking 29528 objects as of 12-Sep-2024
HD Live streaming from Space Station
objects crossing your sky now

STARLINK-31375

Track STARLINK-31375 now!
10-day predictions


NORAD ID: 59472
Int'l Code: 2024-068T
Perigee: 424.7 km
Apogee: 432.8 km
Inclination: 43.0 °
Period: 93.0 minutes
Semi major axis: 6799 km
RCS: Unknown
Launch date: April 10, 2024
Source: United States (US)
Launch site: AIR FORCE EASTERN TEST RANGE (AFETR)
Your satellite tracking list
Your tracking list is empty




NASA's NSSDC Master Catalog

Two Line Element Set (TLE):
1 59472U 24068T   24256.58334491  .00615035  00000-0  10484-1 0  9991
2 59472  43.0013 237.7667 0005945 161.4971 279.1918 15.48332593 25276
Source of the keplerian elements: AFSPC